SCP
-0 -0 -0 -0 0 0 0 0 0 0 0 -0 -0 -0 -0 -0 -0 -0 -0 -0 -0 -0 -0 -0 -0 -0 0 0 0 0 0 -0 -0 -0 0 0 0 0 0 -0 -0 0 -0 -0 0 -0 -0
-0 -0 -0 -0 -0 0 0 0 0 0 -0 -0 -0 -0 -0 -0 -0 -0 -0 -0 -0 -0 -0 -0 -0 0 0 0 0 0 0 0 -0 -0 0 0 -0 0 0 -0 -0 0 0 0 -0 -0 0
-0 -0 -0 -0 -0 -0 -0 0 0 0 0 -0 -0 -0 -0 -0 -0 -0 -0 -0 -0 -0 -0 0 0 -0 0 0 0 0 0 0 -0 -0 0 0 0 -0 -0 0 -0 0 0 -0 -0 0 0
0 0 -0 -0 -0 -0 -0 -0 -0 -0 -0 -0 -0 -0 -0 -0 -0 -0 -0 -0 -0 -0 0 0 -0 -0 0 0 0 0 0 0 0 0 0 -0 0 -0 -0 0 0 0 -0 0 0 -0 0
0 0 0 0 0 -0 -0 -0 -0 -0 -0 -0 -0 -0 -0 -0 -0 -0 -0 -0 -0 -0 -0 -0 -0 0 -0 0 -0 0 0 0 0 0 0 0 -0 -0 0 -0 0 -0 0 0 0 -0 0
0 0 0 0 0 0 -0 -0 -0 -0 -0 -0 -0 -0 -0 -0 -0 -0 -0 -0 -0 0 -0 -0 0 0 0 0 -0 -0 0 0 0 0 0 -0 0 0 -0 -0 0 0 0 0 -0 -0 0
0 0 0 0 0 0 0 -0 -0 -0 -0 -0 -0 -0 -0 -0 -0 -0 -0 0 0 0 0 0 -0 -0 0 0 0 0 0 0 0 0 -0 -0 -0 0 0 -0 0 0 0 0 -0 0 -0
0 0 0 0 0 0 0 0 -0 -0 -0 -0 -0 -0 -0 -0 -0 -0 -0 0 0 -0 -0 -0 0 0 -0 0 0 0 0 0 0 -0 -0 -0 -0 -0 0 0 0 0 0 0 -0 0 -0
0 0 0 0 0 0 0 0 0 -0 -0 -0 -0 -0 -0 -0 -0 0 0 -0 0 -0 0 0 -0 -0 -0 0 -0 0 0 0 0 -0 -0 0 0 0 0 0 0 0 0 0 0 0 0
0 0 0 0 0 0 0 0 0 0 -0 -0 -0 -0 -0 -0 0 0 0 0 0 -0 0 0 -0 -0 0 0 0 -0 0 0 0 0 0 0 0 0 0 -0 0 0 0 0 0 0 0
0 0 0 0 0 0 0 0 0 0 -0 -0 -0 0 0 0 0 0 0 0 0 0 0 -0 -0 -0 0 0 0 -0 -0 0 0 0 0 -0 -0 -0 -0 -0 0 -0 0 0 0 -0 -0
0 0 0 0 0 -0 -0 -0 -0 -0 -0 -0 -0 0 0 -0 0 0 0 0 0 0 0 -0 -0 -0 0 -0 0 0 0 0 -0 -0 -0 -0 -0 -0 0 0 0 0 0 -0 0 0 0
0 -0 -0 -0 -0 -0 -0 -0 -0 -0 -0 -0 -0 0 0 0 0 0 0 0 0 0 0 0 -0 -0 -0 -0 -0 -0 0 0 0 0 0 -0 -0 0 0 -0 0 -0 -0 -0 0 0 0
-0 -0 -0 -0 -0 -0 -0 -0 -0 -0 -0 -0 -0 -0 0 0 0 0 0 0 0 0 0 0 0 0 -0 -0 -0 -0 0 0 -0 -0 0 0 -0 0 0 -0 -0 0 -0 -0 0 0 0
-0 -0 -0 -0 -0 -0 -0 -0 -0 -0 -0 -0 -0 0 0 0 -0 0 0 0 0 0 0 0 0 0 0 -0 -0 0 0 0 0 0 0 0 -0 0 0 0 0 0 0 -0 0 0 0
-0 -0 -0 -0 -0 -0 -0 -0 -0 -0 -0 -0 0 0 0 0 0 0 0 0 0 0 0 0 0 0 0 0 0 0 0 -0 0 -0 0 0 0 0 0 0 0 0 0 0 0 0 0
-0 -0 -0 -0 -0 -0 -0 -0 -0 -0 -0 -0 0 0 0 -0 0 0 0 0 0 0 0 0 0 0 0 0 0 0 0 0 0 0 0 0 0 0 0 0 0 0 0 0 0 0 -0
0 0 -0 0 -0 -0 -0 -0 -0 -0 -0 0 0 0 0 -0 0 0 0 0 0 0 0 0 0 0 0 0 0 0 0 0 0 0 0 0 0 0 0 0 0 0 0 0 0 0 0
-0 0 -0 0 0 0 0 0 0 0 0 0 0 0 0 0 0 0 0 0 0 0 0 0 0 0 0 0 0 0 0 0 0 0 0 0 0 0 0 0 0 0 0 0 0 0 0
0 0 0 0 0 0 0 -0 -0 -0 -0 0 0 0 0 0 0 0 0 0 0 0 0 0 0 0 0 0 0 0 0 0 0 0 0 0 0 0 0 0 0 0 0 0 0 0 0
0 -0 0 0 -0 -0 -0 -0 -0 -0 0 0 0 0 0 0 0 0 0 0 0 0 0 0 0 0 0 0 0 0 0 0 0 0 0 0 0 0 0 0 0 0 0 0 0 0 0
-0 -0 -0 -0 -0 -0 -0 -0 -0 -0 0 0 0 0 0 0 0 0 0 0 0 0 0 0 0 0 0 0 0 0 0 0 0 0 0 0 0 0 0 0 0 0 0 0 0 0 0
-0 -0 -0 -0 -0 -0 -0 -0 -0 -0 0 0 0 0 0 0 0 0 0 0 0 0 0 0 0 0 0 0 0 0 0 0 0 0 0 0 0 0 0 0 0 0 0 0 0 0 0
-0 -0 -0 -0 -0 -0 -0 -0 -0 -0 0 0 0 0 0 0 0 0 0 0 0 0 0 0 0 0 0 0 0 0 0 0 0 0 0 0 0 0 0 0 0 0 0 0 0 0 0
-0 -0 -0 -0 -0 -0 -0 -0 -0 -0 -0 0 0 0 0 0 0 0 0 0 0 0 0 0 0 0 0 0 0 0 0 0 0 0 0 0 0 0 0 0 0 0 0 0 0 0 0
-0 -0 -0 -0 -0 -0 -0 -0 -0 -0 -0 0 0 0 0 0 0 0 0 0 0 0 0 0 0 0 0 0 0 0 0 0 0 0 0 0 0 0 0 0 0 0 0 0 0 0 0
-0 -0 -0 -0 -0 -0 -0 -0 -0 -0 -0 0 0 0 0 0 0 0 0 0 0 0 0 0 0 0 0 0 0 0 0 0 0 0 0 0 0 0 0 0 0 0 0 0 0 0 0
0 0 -0 -0 -0 -0 -0 -0 -0 -0 -0 0 0 0 0 0 0 0 0 0 0 0 0 0 0 0 0 0 0 0 0 0 0 0 0 0 0 0 0 0 0 0 0 0 0 0 0
0 -0 -0 -0 -0 -0 -0 -0 -0 -0 -0 0 0 0 0 0 0 0 0 0 0 0 0 0 0 0 0 0 0 0 0 0 0 0 0 0 0 0 0 0 0 0 0 0 0 0 0
Wind_Speed_500mb
23 23 23 24 25 26 27 29 30 32 33 34 35 36 37 37 36 34 32 27 21 18 15 14 13 10 9 4 3 7 10 14 22 18 12 9 11 10 6 16 25 4 11 22 7 42 39
23 24 24 25 26 27 28 29 32 34 35 36 37 37 37 38 38 36 33 27 21 16 13 12 11 8 7 5 6 5 10 16 27 20 12 9 10 28 18 10 5 17 20 23 26 27 28
22 23 24 25 26 27 29 31 33 34 36 38 38 39 39 38 38 37 34 26 19 14 12 12 11 10 12 7 8 6 5 7 23 18 15 8 16 22 26 14 27 18 13 16 14 14 13
23 23 24 25 27 28 30 32 34 36 38 40 41 41 40 39 38 36 33 24 16 10 11 11 10 10 10 13 17 12 7 9 16 15 11 6 18 21 8 21 18 13 8 12 13 6 18
23 24 25 26 27 28 31 33 35 38 40 41 42 42 40 39 37 35 31 20 11 9 10 10 8 8 7 11 13 13 12 10 12 8 9 14 20 6 9 7 11 12 4 11 19 10 10
24 26 26 27 28 30 31 34 36 38 41 43 43 42 40 39 37 34 27 11 9 12 10 9 13 10 5 5 9 22 17 11 7 4 6 4 3 7 8 9 6 5 11 16 12 9 5
24 26 27 28 29 31 33 35 37 40 42 44 46 43 39 38 34 31 19 4 9 5 18 17 18 19 12 5 11 29 20 15 13 2 4 7 10 12 19 14 11 5 7 13 26 8 9
25 26 28 30 31 34 35 37 39 41 43 45 47 43 38 35 31 19 14 6 12 8 20 28 30 33 18 11 5 19 19 12 10 10 5 10 12 24 10 6 10 10 8 16 17 8 3
25 27 29 31 34 37 38 40 41 42 44 46 47 43 38 32 25 5 10 11 18 15 7 16 15 23 20 19 17 31 22 16 8 7 7 12 16 17 5 15 9 18 9 12 8 11 8
25 28 30 33 37 41 42 43 44 44 45 47 47 43 38 28 15 4 5 6 18 8 8 11 7 11 21 16 8 25 35 20 3 17 12 12 20 11 9 15 11 8 15 14 7 6 3
26 29 33 37 41 44 46 46 46 45 46 47 45 43 37 28 20 14 9 7 16 2 5 1 7 6 21 17 5 20 40 29 15 13 12 15 10 10 9 14 13 18 3 4 3 7 4
28 32 37 42 46 47 47 47 47 46 46 46 43 44 38 28 20 12 16 7 5 10 3 4 10 10 11 11 3 8 33 30 4 7 6 17 15 10 17 9 11 6 4 13 10 6 6
32 38 43 47 49 47 48 48 48 47 45 46 42 44 38 24 7 12 12 4 9 6 8 5 10 10 8 10 7 12 14 16 11 6 6 13 10 9 9 4 4 12 14 8 10 10 10
37 43 47 50 49 49 49 49 48 44 43 47 43 37 27 13 21 18 12 9 4 5 10 8 6 7 10 8 7 5 11 7 8 7 3 1 14 9 7 13 11 7 13 10 5 2 11
41 46 50 51 52 50 49 47 45 39 42 46 39 23 9 12 27 23 13 5 12 11 7 8 5 10 3 7 4 4 7 6 13 18 14 7 9 13 6 6 12 3 2 7 12 5 5
43 47 50 52 51 47 46 45 41 38 41 44 26 9 6 12 31 23 9 10 9 11 9 6 4 5 5 6 14 12 11 8 12 31 17 7 5 6 11 14 16 11 7 8 8 4 5
44 47 50 51 48 45 45 43 46 41 40 31 11 4 13 15 30 10 7 13 12 20 12 6 2 2 3 5 12 11 17 5 9 6 14 10 7 12 10 13 5 13 9 11 10 7 7
44 46 48 49 46 45 44 44 48 47 39 24 5 6 18 27 6 2 5 11 10 13 34 6 9 2 3 5 12 8 8 12 31 1 9 8 9 7 10 4 12 10 7 9 9 7 3
43 45 47 47 45 45 43 45 47 47 39 28 8 7 22 29 2 4 10 9 13 7 7 2 7 9 9 9 9 9 11 16 32 11 5 5 7 6 13 12 13 15 12 5 8 6 3
42 44 45 47 44 43 44 44 45 42 34 15 5 5 7 21 14 7 4 12 9 5 11 18 8 8 11 17 16 7 4 8 27 17 23 15 7 10 11 7 4 10 9 9 8 7 8
40 43 45 46 43 42 43 43 43 38 24 15 10 4 5 3 8 5 7 7 9 7 11 26 15 11 7 9 10 10 10 13 14 30 13 10 7 6 5 16 16 8 10 16 11 4 7
39 42 42 44 42 40 40 42 41 38 20 14 9 9 8 6 22 7 6 8 4 5 10 8 14 8 12 10 7 3 5 6 2 14 10 8 6 6 4 7 17 22 16 12 14 10 11
35 39 41 42 40 38 38 39 40 34 27 13 12 7 4 11 13 5 9 3 8 4 24 12 14 8 10 8 6 12 13 14 7 9 7 5 9 6 2 6 9 10 8 5 4 7 2
32 35 39 40 39 37 35 36 37 34 29 31 24 7 6 5 7 6 11 8 13 11 12 4 12 7 1 11 9 3 3 6 2 5 12 8 8 5 6 5 3 8 4 9 13 6 7
29 32 36 38 38 36 33 32 33 28 19 25 30 10 7 2 6 11 22 8 20 17 8 7 11 7 12 7 8 8 9 7 6 13 9 5 10 7 8 5 3 8 4 5 9 3 7
27 29 33 36 37 36 33 30 31 26 16 10 25 21 4 2 10 9 5 13 5 7 11 6 16 17 8 9 7 6 7 8 5 2 7 11 14 9 5 8 13 7 10 23 8 8 6
25 26 30 33 36 35 33 29 29 25 16 10 21 23 2 3 10 13 9 1 4 4 3 7 13 13 15 6 6 4 1 3 6 9 0 6 7 7 4 4 6 4 11 8 3 9 23
26 24 27 30 33 33 32 28 26 26 17 9 12 20 11 5 4 6 7 6 3 7 5 6 6 11 9 8 4 3 3 0 7 3 7 7 9 3 5 5 6 4 2 0 5 15 21
30 25 24 26 30 31 30 28 25 25 20 12 8 20 14 10 7 7 3 3 2 7 6 6 5 3 4 7 1 3 2 5 4 4 5 2 10 9 9 8 8 13 15 9 6 15 23
Wind_Direction_500mb
17 16 15 13 10 9 8 5 3 1 359 357 356 355 353 351 349 346 341 334 325 316 312 311 313 324 328 298 103 90 32 205 215 224 234 286 335 337 330 317 315 56 339 293 333 173 180
10 8 6 5 3 1 0 360 358 357 354 352 350 349 349 348 347 345 342 335 325 317 312 308 313 314 304 275 128 120 22 205 212 212 220 260 312 324 296 270 327 308 309 305 298 167 170
4 2 359 358 357 355 355 354 353 352 351 349 346 345 345 345 344 344 340 335 325 314 309 309 311 304 266 196 161 155 64 136 200 199 218 252 310 327 316 319 328 324 354 334 276 160 170
355 355 354 352 351 350 350 349 349 348 347 346 343 341 341 341 342 342 338 332 322 311 307 307 301 300 254 179 227 213 182 145 175 198 219 277 341 311 284 312 349 8 38 6 294 259 203
353 351 350 349 347 346 346 345 345 345 344 343 341 338 337 337 338 340 335 331 324 310 311 304 293 302 264 218 211 194 179 159 164 184 210 293 315 316 358 48 3 3 313 316 320 204 114
352 350 349 348 345 344 343 342 342 342 342 341 340 336 335 333 335 338 334 329 328 304 300 298 275 309 348 313 184 184 193 201 205 188 281 286 349 35 29 69 230 295 330 313 268 285 178
351 349 347 345 343 341 340 339 338 338 339 338 338 335 333 331 332 337 337 321 348 323 299 257 280 286 305 76 140 169 189 208 233 260 141 14 46 255 245 195 201 233 229 263 281 273 250
347 346 344 342 340 338 337 334 333 334 335 335 334 333 332 329 328 342 21 60 37 341 303 290 266 259 229 264 283 176 189 175 159 203 86 5 261 248 263 222 223 207 278 283 270 344 211
347 344 342 341 338 335 332 330 329 330 331 331 331 330 328 326 324 331 39 44 5 328 277 288 247 234 223 201 204 204 198 182 147 159 169 174 235 47 353 295 299 279 209 254 228 329 358
347 344 343 340 337 333 330 327 325 325 327 326 327 326 325 325 315 287 134 26 345 326 52 274 241 220 198 195 242 198 196 189 158 196 170 231 288 238 268 252 173 264 236 234 286 60 278
349 345 343 339 335 332 327 325 322 322 323 322 323 322 319 313 291 275 233 302 338 342 26 130 195 179 190 173 152 191 195 199 187 197 114 249 261 272 239 226 169 227 97 96 347 90 35
350 346 341 338 335 331 327 323 321 321 320 318 320 317 310 302 279 234 227 267 323 36 295 287 167 153 107 215 239 121 195 209 248 188 216 241 265 220 220 233 183 62 43 37 54 69 33
349 345 340 338 336 333 328 324 321 321 319 316 319 310 300 283 243 181 206 188 39 134 320 233 204 147 161 191 240 171 164 193 194 109 321 314 268 267 195 235 51 77 54 352 354 13 219
346 343 341 339 336 333 328 325 323 323 320 318 320 306 289 252 206 190 148 60 183 243 254 284 147 77 163 162 257 192 116 204 240 83 90 112 341 341 182 203 166 69 139 149 248 222 272
344 343 342 340 339 335 332 329 326 329 327 323 324 310 290 192 187 181 165 90 212 211 267 299 43 95 239 222 196 137 179 221 210 168 184 157 275 307 28 116 121 184 140 179 104 28 24
344 345 344 344 343 343 340 340 336 336 335 329 334 339 121 154 177 162 87 235 242 212 326 319 121 158 207 222 169 150 186 226 229 188 163 215 331 322 332 56 32 100 143 37 12 67 345
346 347 347 348 349 348 347 348 342 343 343 339 342 64 144 133 157 154 161 233 272 291 359 210 65 31 233 266 197 171 195 303 345 32 139 136 127 306 37 17 353 13 14 47 111 125 162
349 349 350 352 353 352 351 352 346 345 352 349 19 57 152 152 94 69 187 205 304 289 323 302 98 114 211 337 34 87 87 351 330 50 79 4 120 90 164 303 84 81 39 109 110 283 90
350 351 351 353 355 353 353 354 350 348 350 350 4 73 166 178 132 281 293 296 255 267 257 286 50 49 47 30 93 57 69 355 36 75 105 118 12 83 339 353 8 57 329 331 104 79 26
352 353 353 355 355 354 354 357 354 353 357 10 39 66 148 223 251 172 345 282 290 56 66 79 20 70 63 22 6 81 39 1 15 55 67 90 61 141 166 188 141 70 333 343 96 104 159
353 353 354 355 357 356 355 359 1 359 0 17 22 51 53 277 276 310 185 274 306 43 64 35 21 38 106 53 19 25 359 352 9 17 45 90 107 69 95 96 87 78 31 18 66 108 122
351 353 354 355 358 357 357 0 9 7 7 28 25 23 356 286 306 290 160 21 2 36 49 10 106 24 84 113 168 170 28 35 13 347 42 13 148 137 59 93 106 81 31 32 31 38 105
346 351 353 356 359 358 360 3 7 19 25 23 12 14 333 355 336 64 333 10 349 102 38 97 145 108 85 154 227 262 256 268 270 14 29 58 124 82 213 98 141 34 347 60 79 22 34
342 347 353 355 358 358 360 4 7 14 29 28 22 14 354 342 39 358 346 73 34 25 123 96 73 97 271 316 286 239 249 346 327 291 202 124 90 81 178 11 184 238 283 87 106 32 1
336 344 350 354 356 358 359 3 9 13 28 30 29 24 8 55 310 351 16 18 40 64 61 77 43 19 345 19 59 36 358 51 13 43 26 137 123 80 121 86 81 276 142 224 214 264 352
326 338 346 351 355 357 357 0 7 12 24 23 23 20 31 90 336 330 333 25 56 358 359 10 33 43 16 71 65 128 188 173 163 61 48 58 70 110 116 145 208 189 289 337 140 267 316
313 324 339 347 352 354 355 357 3 8 15 27 15 8 13 355 24 30 46 7 29 64 139 326 345 12 26 46 69 110 255 207 121 139 212 28 11 109 96 125 290 212 302 328 191 251 322
300 309 324 337 346 351 352 353 356 1 2 354 336 344 350 313 37 36 39 46 75 43 124 340 49 3 42 60 101 262 105 272 83 90 157 139 123 157 100 104 263 351 141 212 233 314 311
297 298 309 322 337 345 347 350 351 355 357 355 331 333 309 268 263 316 279 242 69 35 358 26 116 157 137 93 125 118 69 53 133 190 30 31 174 174 164 204 144 112 128 159 302 298 312
Wind_Speed_850mb
23 23 23 24 25 26 27 29 30 32 33 34 35 36 37 37 36 34 32 27 21 18 15 14 13 10 9 4 3 7 10 14 22 18 12 9 11 10 6 16 25 4 11 22 7 42 39
23 24 24 25 26 27 28 29 32 34 35 36 37 37 37 38 38 36 33 27 21 16 13 12 11 8 7 5 6 5 10 16 27 20 12 9 10 28 18 10 5 17 20 23 26 27 28
22 23 24 25 26 27 29 31 33 34 36 38 38 39 39 38 38 37 34 26 19 14 12 12 11 10 12 7 8 6 5 7 23 18 15 8 16 22 26 14 27 18 13 16 14 14 13
23 23 24 25 27 28 30 32 34 36 38 40 41 41 40 39 38 36 33 24 16 10 11 11 10 10 10 13 17 12 7 9 16 15 11 6 18 21 8 21 18 13 8 12 13 6 18
23 24 25 26 27 28 31 33 35 38 40 41 42 42 40 39 37 35 31 20 11 9 10 10 8 8 7 11 13 13 12 10 12 8 9 14 20 6 9 7 11 12 4 11 19 10 10
24 26 26 27 28 30 31 34 36 38 41 43 43 42 40 39 37 34 27 11 9 12 10 9 13 10 5 5 9 22 17 11 7 4 6 4 3 7 8 9 6 5 11 16 12 9 5
24 26 27 28 29 31 33 35 37 40 42 44 46 43 39 38 34 31 19 4 9 5 18 17 18 19 12 5 11 29 20 15 13 2 4 7 10 12 19 14 11 5 7 13 26 8 9
25 26 28 30 31 34 35 37 39 41 43 45 47 43 38 35 31 19 14 6 12 8 20 28 30 33 18 11 5 19 19 12 10 10 5 10 12 24 10 6 10 10 8 16 17 8 3
25 27 29 31 34 37 38 40 41 42 44 46 47 43 38 32 25 5 10 11 18 15 7 16 15 23 20 19 17 31 22 16 8 7 7 12 16 17 5 15 9 18 9 12 8 11 8
25 28 30 33 37 41 42 43 44 44 45 47 47 43 38 28 15 4 5 6 18 8 8 11 7 11 21 16 8 25 35 20 3 17 12 12 20 11 9 15 11 8 15 14 7 6 3
26 29 33 37 41 44 46 46 46 45 46 47 45 43 37 28 20 14 9 7 16 2 5 1 7 6 21 17 5 20 40 29 15 13 12 15 10 10 9 14 13 18 3 4 3 7 4
28 32 37 42 46 47 47 47 47 46 46 46 43 44 38 28 20 12 16 7 5 10 3 4 10 10 11 11 3 8 33 30 4 7 6 17 15 10 17 9 11 6 4 13 10 6 6
32 38 43 47 49 47 48 48 48 47 45 46 42 44 38 24 7 12 12 4 9 6 8 5 10 10 8 10 7 12 14 16 11 6 6 13 10 9 9 4 4 12 14 8 10 10 10
37 43 47 50 49 49 49 49 48 44 43 47 43 37 27 13 21 18 12 9 4 5 10 8 6 7 10 8 7 5 11 7 8 7 3 1 14 9 7 13 11 7 13 10 5 2 11
41 46 50 51 52 50 49 47 45 39 42 46 39 23 9 12 27 23 13 5 12 11 7 8 5 10 3 7 4 4 7 6 13 18 14 7 9 13 6 6 12 3 2 7 12 5 5
43 47 50 52 51 47 46 45 41 38 41 44 26 9 6 12 31 23 9 10 9 11 9 6 4 5 5 6 14 12 11 8 12 31 17 7 5 6 11 14 16 11 7 8 8 4 5
44 47 50 51 48 45 45 43 46 41 40 31 11 4 13 15 30 10 7 13 12 20 12 6 2 2 3 5 12 11 17 5 9 6 14 10 7 12 10 13 5 13 9 11 10 7 7
44 46 48 49 46 45 44 44 48 47 39 24 5 6 18 27 6 2 5 11 10 13 34 6 9 2 3 5 12 8 8 12 31 1 9 8 9 7 10 4 12 10 7 9 9 7 3
43 45 47 47 45 45 43 45 47 47 39 28 8 7 22 29 2 4 10 9 13 7 7 2 7 9 9 9 9 9 11 16 32 11 5 5 7 6 13 12 13 15 12 5 8 6 3
42 44 45 47 44 43 44 44 45 42 34 15 5 5 7 21 14 7 4 12 9 5 11 18 8 8 11 17 16 7 4 8 27 17 23 15 7 10 11 7 4 10 9 9 8 7 8
40 43 45 46 43 42 43 43 43 38 24 15 10 4 5 3 8 5 7 7 9 7 11 26 15 11 7 9 10 10 10 13 14 30 13 10 7 6 5 16 16 8 10 16 11 4 7
39 42 42 44 42 40 40 42 41 38 20 14 9 9 8 6 22 7 6 8 4 5 10 8 14 8 12 10 7 3 5 6 2 14 10 8 6 6 4 7 17 22 16 12 14 10 11
35 39 41 42 40 38 38 39 40 34 27 13 12 7 4 11 13 5 9 3 8 4 24 12 14 8 10 8 6 12 13 14 7 9 7 5 9 6 2 6 9 10 8 5 4 7 2
32 35 39 40 39 37 35 36 37 34 29 31 24 7 6 5 7 6 11 8 13 11 12 4 12 7 1 11 9 3 3 6 2 5 12 8 8 5 6 5 3 8 4 9 13 6 7
29 32 36 38 38 36 33 32 33 28 19 25 30 10 7 2 6 11 22 8 20 17 8 7 11 7 12 7 8 8 9 7 6 13 9 5 10 7 8 5 3 8 4 5 9 3 7
27 29 33 36 37 36 33 30 31 26 16 10 25 21 4 2 10 9 5 13 5 7 11 6 16 17 8 9 7 6 7 8 5 2 7 11 14 9 5 8 13 7 10 23 8 8 6
25 26 30 33 36 35 33 29 29 25 16 10 21 23 2 3 10 13 9 1 4 4 3 7 13 13 15 6 6 4 1 3 6 9 0 6 7 7 4 4 6 4 11 8 3 9 23
26 24 27 30 33 33 32 28 26 26 17 9 12 20 11 5 4 6 7 6 3 7 5 6 6 11 9 8 4 3 3 0 7 3 7 7 9 3 5 5 6 4 2 0 5 15 21
30 25 24 26 30 31 30 28 25 25 20 12 8 20 14 10 7 7 3 3 2 7 6 6 5 3 4 7 1 3 2 5 4 4 5 2 10 9 9 8 8 13 15 9 6 15 23
Wind_Direction_850mb
17 16 15 13 10 9 8 5 3 1 359 357 356 355 353 351 349 346 341 334 325 316 312 311 313 324 328 298 103 90 32 205 215 224 234 286 335 337 330 317 315 56 339 293 333 173 180
10 8 6 5 3 1 0 360 358 357 354 352 350 349 349 348 347 345 342 335 325 317 312 308 313 314 304 275 128 120 22 205 212 212 220 260 312 324 296 270 327 308 309 305 298 167 170
4 2 359 358 357 355 355 354 353 352 351 349 346 345 345 345 344 344 340 335 325 314 309 309 311 304 266 196 161 155 64 136 200 199 218 252 310 327 316 319 328 324 354 334 276 160 170
355 355 354 352 351 350 350 349 349 348 347 346 343 341 341 341 342 342 338 332 322 311 307 307 301 300 254 179 227 213 182 145 175 198 219 277 341 311 284 312 349 8 38 6 294 259 203
353 351 350 349 347 346 346 345 345 345 344 343 341 338 337 337 338 340 335 331 324 310 311 304 293 302 264 218 211 194 179 159 164 184 210 293 315 316 358 48 3 3 313 316 320 204 114
352 350 349 348 345 344 343 342 342 342 342 341 340 336 335 333 335 338 334 329 328 304 300 298 275 309 348 313 184 184 193 201 205 188 281 286 349 35 29 69 230 295 330 313 268 285 178
351 349 347 345 343 341 340 339 338 338 339 338 338 335 333 331 332 337 337 321 348 323 299 257 280 286 305 76 140 169 189 208 233 260 141 14 46 255 245 195 201 233 229 263 281 273 250
347 346 344 342 340 338 337 334 333 334 335 335 334 333 332 329 328 342 21 60 37 341 303 290 266 259 229 264 283 176 189 175 159 203 86 5 261 248 263 222 223 207 278 283 270 344 211
347 344 342 341 338 335 332 330 329 330 331 331 331 330 328 326 324 331 39 44 5 328 277 288 247 234 223 201 204 204 198 182 147 159 169 174 235 47 353 295 299 279 209 254 228 329 358
347 344 343 340 337 333 330 327 325 325 327 326 327 326 325 325 315 287 134 26 345 326 52 274 241 220 198 195 242 198 196 189 158 196 170 231 288 238 268 252 173 264 236 234 286 60 278
349 345 343 339 335 332 327 325 322 322 323 322 323 322 319 313 291 275 233 302 338 342 26 130 195 179 190 173 152 191 195 199 187 197 114 249 261 272 239 226 169 227 97 96 347 90 35
350 346 341 338 335 331 327 323 321 321 320 318 320 317 310 302 279 234 227 267 323 36 295 287 167 153 107 215 239 121 195 209 248 188 216 241 265 220 220 233 183 62 43 37 54 69 33
349 345 340 338 336 333 328 324 321 321 319 316 319 310 300 283 243 181 206 188 39 134 320 233 204 147 161 191 240 171 164 193 194 109 321 314 268 267 195 235 51 77 54 352 354 13 219
346 343 341 339 336 333 328 325 323 323 320 318 320 306 289 252 206 190 148 60 183 243 254 284 147 77 163 162 257 192 116 204 240 83 90 112 341 341 182 203 166 69 139 149 248 222 272
344 343 342 340 339 335 332 329 326 329 327 323 324 310 290 192 187 181 165 90 212 211 267 299 43 95 239 222 196 137 179 221 210 168 184 157 275 307 28 116 121 184 140 179 104 28 24
344 345 344 344 343 343 340 340 336 336 335 329 334 339 121 154 177 162 87 235 242 212 326 319 121 158 207 222 169 150 186 226 229 188 163 215 331 322 332 56 32 100 143 37 12 67 345
346 347 347 348 349 348 347 348 342 343 343 339 342 64 144 133 157 154 161 233 272 291 359 210 65 31 233 266 197 171 195 303 345 32 139 136 127 306 37 17 353 13 14 47 111 125 162
349 349 350 352 353 352 351 352 346 345 352 349 19 57 152 152 94 69 187 205 304 289 323 302 98 114 211 337 34 87 87 351 330 50 79 4 120 90 164 303 84 81 39 109 110 283 90
350 351 351 353 355 353 353 354 350 348 350 350 4 73 166 178 132 281 293 296 255 267 257 286 50 49 47 30 93 57 69 355 36 75 105 118 12 83 339 353 8 57 329 331 104 79 26
352 353 353 355 355 354 354 357 354 353 357 10 39 66 148 223 251 172 345 282 290 56 66 79 20 70 63 22 6 81 39 1 15 55 67 90 61 141 166 188 141 70 333 343 96 104 159
353 353 354 355 357 356 355 359 1 359 0 17 22 51 53 277 276 310 185 274 306 43 64 35 21 38 106 53 19 25 359 352 9 17 45 90 107 69 95 96 87 78 31 18 66 108 122
351 353 354 355 358 357 357 0 9 7 7 28 25 23 356 286 306 290 160 21 2 36 49 10 106 24 84 113 168 170 28 35 13 347 42 13 148 137 59 93 106 81 31 32 31 38 105
346 351 353 356 359 358 360 3 7 19 25 23 12 14 333 355 336 64 333 10 349 102 38 97 145 108 85 154 227 262 256 268 270 14 29 58 124 82 213 98 141 34 347 60 79 22 34
342 347 353 355 358 358 360 4 7 14 29 28 22 14 354 342 39 358 346 73 34 25 123 96 73 97 271 316 286 239 249 346 327 291 202 124 90 81 178 11 184 238 283 87 106 32 1
336 344 350 354 356 358 359 3 9 13 28 30 29 24 8 55 310 351 16 18 40 64 61 77 43 19 345 19 59 36 358 51 13 43 26 137 123 80 121 86 81 276 142 224 214 264 352
326 338 346 351 355 357 357 0 7 12 24 23 23 20 31 90 336 330 333 25 56 358 359 10 33 43 16 71 65 128 188 173 163 61 48 58 70 110 116 145 208 189 289 337 140 267 316
313 324 339 347 352 354 355 357 3 8 15 27 15 8 13 355 24 30 46 7 29 64 139 326 345 12 26 46 69 110 255 207 121 139 212 28 11 109 96 125 290 212 302 328 191 251 322
300 309 324 337 346 351 352 353 356 1 2 354 336 344 350 313 37 36 39 46 75 43 124 340 49 3 42 60 101 262 105 272 83 90 157 139 123 157 100 104 263 351 141 212 233 314 311
297 298 309 322 337 345 347 350 351 355 357 355 331 333 309 268 263 316 279 242 69 35 358 26 116 157 137 93 125 118 69 53 133 190 30 31 174 174 164 204 144 112 128 159 302 298 312